www.pogodaiklimat.ru

Погода и климат >> Архив погоды >> Марокко >> Сиди-Ифни


ПОГОДА в Сиди-Ифни

  • Прогноз погоды в Сиди-Ифни
  • Монитор погоды в Сиди-Ифни

АРХИВ ПОГОДЫ в Сиди-Ифни

Время (UTC), дата Ветер
(напр.,м/с)
 
Видим.   Явления Облачность Т
(С)
Тd
(С)
f
(%)
Тe
(С)
Тes
(С)
Комфортность P
(гПа)
Po
(гПа)
Тmin
(С)
Tmax
(С)
R
(мм)
R24
(мм)
S
(см)
03 16.09 Ю 2-2
{3}
н/о н/о +18.6 +17.9 96 +20 +20 1015.9 1008.1
06 16.09 Ю 2-2
{4}
2500 м дымка 10/10 240 м
[Sc]
+17.8 +17.3 97 +18 +18 1015.6 1007.8 +17.8
09 16.09 Ю 3-3
{5}
4500 м дымка 8/8 300 м
[Sc]
+18.5 +17.7 95 +20 +21 1016.9 1009.1
12 16.09 З 5-5
{7}
4500 м дымка 8/3 480 м
[Sc Ac trans]
+20.7 +18.4 87 +25 +28 комфорт 1017.4 1009.6
15 16.09 ЮЗ 5-6
{6}
3500 м дымка 8/8 270 м
[Sc]
+21.3 +19.0 87 +26 +27 душно 1017.4 1009.6
18 16.09 З 3-3
{7}
6000 м 8/3 480 м
[Sc Ac trans]
+21.1 +19.1 88 +25 +26 комфорт 1016.1 1008.3 +29.2
21 16.09 СЗ 2-3
{7}
н/о н/о +20.4 +19.2 93 +25 +25 комфорт 1015.9 1008.1
00 17.09 ЮЗ 2-2
{3}
н/о н/о +21.0 +18.1 84 +26 +26 душно 1010.7 1003.0 0.0
03 17.09 ЮЗ 1-2
{5}
н/о н/о +19.4 +19.0 98 +23 +23 комфорт 1013.5 1005.7
06 17.09 Ю 3-3
{5}
1500 м дымка 10/10 210 м
[Sc]
+18.9 +18.8 99 +21 +21 комфорт 1014.0 1006.2 +18.8
09 17.09 З 3-3
{4}
4500 м дымка 6/3 480 м
[Sc Ac trans]
+20.4 +19.1 92 +25 +27 комфорт 1015.3 1007.5
12 17.09 З 4-4
{4}
7000 м 4/1 480 м
[Sc Ac trans]
+21.9 +19.1 84 +27 +36 душно 1015.9 1008.2
15 17.09 СЗ 3-3
{4}
3000 м дымка 9/9 270 м
[Sc]
+20.9 +18.8 88 +26 +27 душно 1014.6 1006.9
18 17.09 СВ 4-5
{5}
4500 м дымка 9/9 480 м
[Sc]
+20.5 +18.7 89 +25 +25 комфорт 1014.8 1007.0 +24.7
21 17.09 СВ 4-4
{6}
н/о н/о +20.4 +18.8 91 +24 +24 комфорт 1015.6 1007.8
00 18.09 СВ 2-2
{6}
н/о н/о +19.4 +18.0 92 +22 +22 комфорт 1015.9 1008.1
03 18.09 СВ 2-2
{3}
н/о н/о +19.5 +18.5 94 +22 +22 комфорт 1014.6 1006.8
06 18.09 З 1-1
{3}
4500 м дымка 8/8 480 м
[Sc]
+19.3 +17.9 92 +22 +22 комфорт 1014.6 1006.8 +19.1
09 18.09 Ю 1-2
{3}
5000 м 5/3 480 м
[Sc Ac trans]
+21.6 +18.3 82 +26 +30 душно 1015.6 1007.9
12 18.09 СЗ 4-4
{4}
5000 м 6/5 480 м
[Sc Ci sp]
+21.3 +18.7 85 +26 +32 душно 1015.6 1007.9
15 18.09 СЗ 3-3
{4}
6000 м 5/5 480 м
[Sc]
+21.5 +18.0 80 +26 +31 душно 1015.1 1007.4
18 18.09 СВ 3-3
{4}
7000 м ясно +21.1 +18.1 83 +25 +26 комфорт 1015.6 1007.8 +22.0
21 18.09 СВ 3-3
{6}
н/о н/о +20.4 +17.2 82 +24 +24 комфорт 1016.1 1008.3
00 19.09 СВ 3-3
{6}
н/о н/о +19.5 +17.3 87 +22 +22 комфорт 1015.6 1007.8
03 19.09 СЗ 1-2
{3}
н/о н/о +19.2 +17.7 91 +22 +22 комфорт 1014.0 1006.2
06 19.09 Ю 3-4
{4}
6000 м 10/10 480 м
[Sc]
+18.6 +17.4 93 +20 +20 1014.0 1006.2 +18.6
09 19.09 ЮЗ 4-4
{5}
7000 м 1/1 480 м
[Sc]
+20.8 +17.9 83 +25 +28 комфорт 1014.8 1007.0
12 19.09 З 5-5
{5}
6000 м 1/1 480 м
[Sc]
+22.4 +18.4 78 +28 +36 душно 1015.1 1007.4
15 19.09 З 4-5
{5}
7000 м 4/4 480 м
[Sc]
+21.5 +18.1 81 +26 +30 душно 1014.8 1007.1
18 19.09 С 2-3
{5}
7000 м 6/6 480 м
[Sc]
+19.8 +17.6 87 +23 +23 комфорт 1014.6 1006.8 +22.6
21 19.09 СВ 4 н/о н/о +19.4 +17.9 91 +22 +22 комфорт 1015.6 1007.8
00 20.09 С 2-3
{5}
н/о н/о +18.9 +17.8 93 +21 +21 комфорт 1015.3 1007.5
03 20.09 З 2-2
{3}
н/о н/о +18.8 +17.9 95 +21 +21 комфорт 1014.3 1006.5
06 20.09 Ю 2-2
{3}
4000 м дымка 10/10 480 м
[Sc]
+18.4 +17.7 96 +20 +20 1013.8 1006.0 +18.2
09 20.09 ЮЗ 3-3
{4}
4500 м дымка 10/10 480 м
[Sc]
+19.8 +18.1 90 +23 +23 комфорт 1015.3 1007.5
12 20.09 ЮЗ 5-5
{6}
6000 м 5/3 480 м
[Sc Ci sp]
+21.6 +18.6 83 +26 +32 душно 1015.6 1007.9
15 20.09 СЗ 2-3
{6}
4500 м дымка 8/6 480 м
[Sc Ci sp]
+21.9 +18.1 79 +27 +31 душно 1015.6 1007.9
18 20.09 С 4-5
{6}
8000 м 6/0 2000 м
[Ac cast Ci sp]
+20.5 +17.6 83 +24 +24 комфорт 1014.8 1007.0 +22.4
21 20.09 СВ 4-4
{6}
н/о н/о +20.2 +17.6 85 +23 +23 комфорт 1014.8 1007.0
00 21.09 СВ 3-3
{6}
н/о н/о +19.4 +17.5 89 +22 +22 комфорт 1014.6 1006.8
03 21.09 СВ 2-2
{4}
н/о н/о +18.6 +17.4 93 +20 +20 1013.5 1005.7
06 21.09 С 2-2
{3}
3000 м дымка 9/9 270 м
[Sc]
+18.4 +17.7 96 +20 +20 1014.6 1006.8 +18.1
09 21.09 СВ 2-3
{3}
10 км 9/9 480 м
[Sc]
+20.3 +17.5 84 +24 +25 комфорт 1016.4 1008.6
12 21.09 СВ 4-4
{5}
8000 м 3/3 480 м
[Sc]
+21.9 +17.7 77 +26 +35 душно 1016.4 1008.7
15 21.09 С 4-5
{5}
8000 м 1/1 480 м
[Sc]
+21.4 +18.4 83 +26 +33 душно 1015.6 1007.9
18 21.09 В 4-4
{5}
400 м туман 10/10 60 м
[Sc]
+18.8 +17.9 95 +20 +20 1015.3 1007.5 +22.3
21 21.09 СВ 4-4
{5}
н/о н/о +18.3 +17.8 97 +19 +19 1016.4 1008.6
00 22.09 СВ 3-4
{6}
н/о н/о +19.8 +17.8 88 +23 +23 комфорт 1016.4 1008.6
03 22.09 СВ 3-3
{5}
н/о н/о +20.3 +17.3 83 +24 +24 комфорт 1015.6 1007.8
06 22.09 СВ 3-3
{5}
6000 м 4/4 480 м
[Sc]
+19.4 +17.3 88 +22 +22 комфорт 1015.9 1008.1 +18.1
09 22.09 С 3-3
{4}
10 км 8/8 400 м
[Cu Sc]
+20.3 +18.8 91 +24 +25 комфорт 1017.4 1009.6
12 22.09 В 3-3
{4}
2000 м дымка 8/8 210 м
[Sc]
+20.3 +19.0 92 +24 +27 комфорт 1017.7 1009.9
15 22.09 В 3-3
{4}
3000 м дымка 5/5 210 м
[Sc]
+21.2 +18.5 85 +26 +30 душно 1016.1 1008.3
18 22.09 СВ 5-6
{6}
8000 м 8/8 480 м
[Sc]
+21.9 +19.5 86 +27 +27 душно 1015.9 1008.2 +22.7
21 22.09 С 3-4
{6}
н/о н/о +22.4 +19.3 83 +28 +28 душно 1016.9 1009.2
00 23.09 З 1-1
{6}
н/о н/о +20.6 +18.9 90 +26 +26 душно 1016.6 1008.8

 

Местоположение метеостанции Сиди-Ифни (Марокко): широта 29.37 долгота -10.18 высота над уровнем моря 66 м.

В архиве по умолчанию представлена погода в Сиди-Ифни за последнюю неделю. Архивные данные за месяц целиком и за предыдущие месяцы, начиная с января 2011 года, Вы можете получить, выбрав интересующий диапазон дат из раскрывающегося списка и нажав кнопку "Ввод!".


*Определитесь, кто Вы:
робот инопланетянин человек

Внимание! Время в таблицах - всемирное. Для получения местного времени необходимо прибавить поправку, которая равна 0 ч.

Смотрите также архив погоды в соседних городах и на ближайших метеорологических станциях:

Погода в Гулимине (Марокко) (41 км)
Погода в Тизните (Марокко) (56 км)
Погода в Агадире (Марокко) (127 км)
Погода в Агадире (Марокко) (130 км)
Погода в Тан-Тане (Марокко) (139 км)
Погода в Таруданте (Марокко) (182 км)
Погода в Аэропорту Эс-Сувейра-Могадор (Марокко) (231 км)
Погода в Эс-Сувейре (Марокко) (242 км)
Погода в Тиндуфе (Алжир) (270 км)
Погода в Марракеше (Марокко) (324 км)

Пояснения к столбцам:

Ветер - указаны скорость ветра в м/с - средняя за 10 мин, порывы в срок и между сроками (в фигурных скобках) и направление, откуда дует ветер: С - северный, СВ - северо-восточный, В - восточный, ЮВ - юго-восточный, Ю - южный, ЮЗ - юго-западный, З - западный, СЗ - северо-западный.
Видимость - горизонтальная дальность видимости в метрах или километрах. При видимости от 1 до 10 км при отсутствии осадков обычно наблюдается дымка, при ухудшении видимости до 1 км и менее - туман. В сухую погоду видимость может ухудшаться дымом, пылью или мглою.
Явления - указаны атмосферные явления, наблюдавшиеся в срок или в последний час перед сроком; фигурными скобками обозначены явления, наблюдавшиеся между сроками (за 1-3 часа до срока); квадратными скобками обозначены град или гололедные отложения с указанием их диаметра в мм.
Облачность - указаны через наклонную черту общая и нижняя облачность в баллах и высота нижней границы облаков в метрах; квадратными скобками обозначены формы облаков: Ci - перистые, Cs - перисто-слоистые, Cc - перисто-кучевые, Ac - высококучевые, As - высокослоистые, Sc - слоисто-кучевые, Ns - слоисто-дождевые, Cu - кучевые, Cb - кучево-дождевые. Подробнее классификацию облаков см. в Атласе облаков (PDF).
T - Температура воздуха - температура, измеренная на высоте 2 м над землей.
Td - Температура точки росы - температура, при понижении до которой содержащийся в воздухе водяной пар достигнет насыщения.
f - Относительная влажность воздуха - влажноcть воздуха, измеренная на высоте 2 м над землей.
Te - Эффективная температура - температура, которую ощущает одетый по сезону человек в тени. Характеристика душности погоды. При расчете учитывается влияние влажности воздуха и скорости ветра на теплоощущения человека.
Tes - Эффективная температура на солнце - температура, которую ощущает человек, с поправкой на солнечный нагрев. Характеристика знойности погоды. Зависит от высоты солнца над горизонтом, облачности и скорости ветра. Ночью, в пасмурную погоду, а также при ветре 12 м/с и более поправка равна нулю.
P - Атмосферное давление - приведенное к уровню моря атмосферное давление.
Po - Атмосферное давление - измеренное на уровне метеостанции атмосферное давление.
Tmin - Минимальная температура - минимум температуры воздуха на высоте 2 м над землей.
Tmax - Максимальная температура - максимум температуры воздуха на высоте 2 м над землей.
R - Количество осадков - Количество выпавших осадков за период времени, мм. При наведении курсора мыши на число - период времени, за который выпало указанное количество осадков.
R24 - Количество осадков - Количество выпавших осадков за 24 часа, мм.
S - Снежный покров - Высота снежного покрова, см. При наведении курсора мыши на число - состояние снежного покрова и степень покрытия местности в баллах.